Retour au catalogue

DELTA 1 DEB

ActifSSO
NORAD 7017·DEBRIS·🇺🇸 United States

Lancé Nov 6, 1973 depuis Vandenberg Space Force Base

Loading…

Prochains Passages (prochaines 24 heures)

TLE

FraisSource: Space-Track

Époque: Sep 13, 2026, 07:34 UTC

1 07017U 73086H   26256.31592817 -.00000059  00000-0 -76061-4 0  9996
2 07017 102.0183 174.4915 0149468 252.3315 231.9272 12.51873004398339

Suivez DELTA 1 DEB en temps réel avec AllMySat

Download on the App Store